Meteo orario Alipur

Oggi, 20 Ottobre, Martedi

Tempo Temperatura Precipitazioni Vento Pressione Umidità
00:00 +27°C° 0 mm 2 m/s 736 mm Hg 16%
01:00 +27°C° 0 mm 1 m/s 736 mm Hg 16%
02:00 +26°C° 0 mm 1 m/s 736 mm Hg 17%
03:00 +26°C° 0 mm 1 m/s 736 mm Hg 17%
04:00 +26°C° 0 mm 1 m/s 736 mm Hg 17%
05:00 +25°C° 0 mm 1 m/s 736 mm Hg 17%
06:00 +26°C° 0 mm 1 m/s 737 mm Hg 17%
07:00 +28°C° 0 mm 1 m/s 737 mm Hg 16%
08:00 +27°C° 0 mm 0 m/s 738 mm Hg 16%
09:00 +29°C° 0 mm 0 m/s 738 mm Hg 14%
10:00 +33°C° 0 mm 1 m/s 738 mm Hg 12%
11:00 +35°C° 0 mm 1 m/s 738 mm Hg 10%
12:00 +36°C° 0 mm 1 m/s 737 mm Hg 9%
13:00 +37°C° 0 mm 2 m/s 736 mm Hg 9%
14:00 +38°C° 0 mm 3 m/s 735 mm Hg 8%
15:00 +37°C° 0 mm 3 m/s 735 mm Hg 9%
16:00 +36°C° 0 mm 2 m/s 735 mm Hg 11%
17:00 +34°C° 0 mm 2 m/s 735 mm Hg 12%
18:00 +32°C° 0 mm 2 m/s 735 mm Hg 13%
19:00 +31°C° 0 mm 2 m/s 736 mm Hg 13%
20:00 +30°C° 0 mm 1 m/s 736 mm Hg 14%
21:00 +29°C° 0 mm 1 m/s 736 mm Hg 14%
22:00 +29°C° 0 mm 1 m/s 736 mm Hg 14%
23:00 +28°C° 0 mm 1 m/s 736 mm Hg 15%

Domani, 21 Ottobre, Mercoledi

Tempo Temperatura Precipitazioni Vento Pressione Umidità
00:00 +28°C° 0 mm 1 m/s 737 mm Hg 15%
01:00 +27°C° 0 mm 1 m/s 737 mm Hg 15%
02:00 +27°C° 0 mm 1 m/s 737 mm Hg 15%
03:00 +27°C° 0 mm 1 m/s 737 mm Hg 16%
04:00 +26°C° 0 mm 1 m/s 737 mm Hg 16%
05:00 +26°C° 0 mm 2 m/s 737 mm Hg 16%
06:00 +27°C° 0 mm 2 m/s 738 mm Hg 16%
07:00 +28°C° 0 mm 2 m/s 738 mm Hg 16%
08:00 +29°C° 0 mm 2 m/s 739 mm Hg 17%
09:00 +31°C° 0 mm 2 m/s 739 mm Hg 15%
10:00 +34°C° 0 mm 2 m/s 739 mm Hg 13%
11:00 +36°C° 0 mm 2 m/s 739 mm Hg 11%
12:00 +36°C° 0 mm 1 m/s 738 mm Hg 10%
13:00 +37°C° 0 mm 1 m/s 737 mm Hg 10%
14:00 +37°C° 0 mm 1 m/s 736 mm Hg 9%
15:00 +36°C° 0 mm 1 m/s 736 mm Hg 10%
16:00 +36°C° 0 mm 2 m/s 735 mm Hg 11%
17:00 +35°C° 0 mm 2 m/s 735 mm Hg 12%
18:00 +34°C° 0 mm 2 m/s 735 mm Hg 13%
19:00 +32°C° 0 mm 2 m/s 736 mm Hg 14%
20:00 +31°C° 0 mm 2 m/s 736 mm Hg 15%
21:00 +30°C° 0 mm 2 m/s 736 mm Hg 16%
22:00 +30°C° 0 mm 2 m/s 736 mm Hg 17%
23:00 +29°C° 0 mm 2 m/s 736 mm Hg 18%

Dopodomani, 22 Ottobre, Giovedi

Tempo Temperatura Precipitazioni Vento Pressione Umidità
00:00 +29°C° 0 mm 2 m/s 736 mm Hg 19%
01:00 +29°C° 0 mm 2 m/s 736 mm Hg 19%
02:00 +28°C° 0 mm 2 m/s 736 mm Hg 20%
03:00 +28°C° 0 mm 2 m/s 736 mm Hg 20%
04:00 +28°C° 0 mm 2 m/s 736 mm Hg 21%
05:00 +28°C° 0 mm 3 m/s 736 mm Hg 21%
06:00 +28°C° 0 mm 2 m/s 736 mm Hg 22%
07:00 +28°C° 0 mm 2 m/s 737 mm Hg 23%
08:00 +29°C° 0 mm 2 m/s 737 mm Hg 23%
09:00 +31°C° 0 mm 2 m/s 737 mm Hg 21%
10:00 +32°C° 0 mm 2 m/s 737 mm Hg 19%
11:00 +35°C° 0 mm 2 m/s 737 mm Hg 17%
12:00 +36°C° 0 mm 2 m/s 736 mm Hg 15%
13:00 +37°C° 0 mm 2 m/s 735 mm Hg 13%
14:00 +38°C° 0 mm 2 m/s 735 mm Hg 10%
15:00 +37°C° 0 mm 2 m/s 735 mm Hg 12%
16:00 +36°C° 0 mm 3 m/s 734 mm Hg 14%
17:00 +34°C° 0 mm 3 m/s 734 mm Hg 15%
18:00 +33°C° 0 mm 3 m/s 735 mm Hg 18%
19:00 +31°C° 0 mm 3 m/s 735 mm Hg 21%
20:00 +29°C° 0 mm 2 m/s 735 mm Hg 24%
21:00 +29°C° 0 mm 2 m/s 736 mm Hg 24%
22:00 +28°C° 0 mm 2 m/s 736 mm Hg 25%
23:00 +28°C° 0 mm 2 m/s 736 mm Hg 25%

23 Ottobre, Venerdi

Tempo Temperatura Precipitazioni Vento Pressione Umidità
00:00 +27°C° 0 mm 1 m/s 736 mm Hg 25%
01:00 +27°C° 0 mm 1 m/s 736 mm Hg 26%
02:00 +26°C° 0 mm 1 m/s 736 mm Hg 26%
03:00 +26°C° 0 mm 1 m/s 736 mm Hg 26%
04:00 +25°C° 0 mm 1 m/s 736 mm Hg 27%
05:00 +25°C° 0 mm 1 m/s 736 mm Hg 27%
06:00 +26°C° 0 mm 1 m/s 736 mm Hg 27%
07:00 +26°C° 0 mm 1 m/s 737 mm Hg 27%
08:00 +27°C° 0 mm 1 m/s 737 mm Hg 27%
09:00 +29°C° 0 mm 2 m/s 737 mm Hg 23%
10:00 +31°C° 0 mm 2 m/s 737 mm Hg 20%
11:00 +34°C° 0 mm 2 m/s 737 mm Hg 17%
12:00 +35°C° 0 mm 2 m/s 737 mm Hg 15%
13:00 +36°C° 0 mm 2 m/s 736 mm Hg 13%
14:00 +37°C° 0 mm 2 m/s 736 mm Hg 11%
15:00 +36°C° 0 mm 2 m/s 736 mm Hg 12%
16:00 +35°C° 0 mm 2 m/s 735 mm Hg 13%
17:00 +33°C° 0 mm 1 m/s 735 mm Hg 13%
18:00 +32°C° 0 mm 1 m/s 736 mm Hg 14%
19:00 +31°C° 0 mm 1 m/s 736 mm Hg 14%
20:00 +28°C° 0 mm 0 m/s 736 mm Hg 15%
21:00 +27°C° 0 mm 0 m/s 736 mm Hg 16%
22:00 +27°C° 0 mm 0 m/s 737 mm Hg 16%
23:00 +26°C° 0 mm 0 m/s 737 mm Hg 16%

24 Ottobre, Sabato

Tempo Temperatura Precipitazioni Vento Pressione Umidità
00:00 +26°C° 0 mm 0 m/s 737 mm Hg 17%
01:00 +27°C° 0 mm 1 m/s 737 mm Hg 18%
02:00 +27°C° 0 mm 1 m/s 737 mm Hg 18%
03:00 +26°C° 0 mm 1 m/s 737 mm Hg 19%
04:00 +26°C° 0 mm 1 m/s 737 mm Hg 19%
05:00 +24°C° 0 mm 0 m/s 737 mm Hg 20%
06:00 +27°C° 0 mm 1 m/s 737 mm Hg 20%
07:00 +27°C° 0 mm 1 m/s 738 mm Hg 20%
08:00 +28°C° 0 mm 1 m/s 738 mm Hg 20%
09:00 +30°C° 0 mm 1 m/s 738 mm Hg 18%
10:00 +32°C° 0 mm 1 m/s 738 mm Hg 16%
11:00 +34°C° 0 mm 1 m/s 738 mm Hg 14%
12:00 +35°C° 0 mm 1 m/s 738 mm Hg 13%
13:00 +36°C° 0 mm 1 m/s 737 mm Hg 11%
14:00 +37°C° 0 mm 1 m/s 737 mm Hg 10%
15:00 +36°C° 0 mm 1 m/s 737 mm Hg 11%
16:00 +34°C° 0 mm 1 m/s 737 mm Hg 11%
17:00 +33°C° 0 mm 1 m/s 736 mm Hg 12%
18:00 +32°C° 0 mm 1 m/s 737 mm Hg 13%
19:00 +31°C° 0 mm 1 m/s 737 mm Hg 14%
20:00 +30°C° 0 mm 1 m/s 737 mm Hg 15%
21:00 +30°C° 0 mm 2 m/s 738 mm Hg 16%
22:00 +29°C° 0 mm 2 m/s 738 mm Hg 16%
23:00 +29°C° 0 mm 2 m/s 738 mm Hg 17%

25 Ottobre, Domenica

Tempo Temperatura Precipitazioni Vento Pressione Umidità
00:00 +28°C° 0 mm 2 m/s 738 mm Hg 18%
01:00 +27°C° 0 mm 1 m/s 738 mm Hg 19%
02:00 +27°C° 0 mm 1 m/s 738 mm Hg 19%
03:00 +26°C° 0 mm 1 m/s 738 mm Hg 21%
04:00 +26°C° 0 mm 1 m/s 738 mm Hg 22%
05:00 +25°C° 0 mm 1 m/s 738 mm Hg 23%
06:00 +26°C° 0 mm 1 m/s 739 mm Hg 23%
07:00 +27°C° 0 mm 2 m/s 739 mm Hg 24%
08:00 +28°C° 0 mm 2 m/s 740 mm Hg 25%
09:00 +30°C° 0 mm 2 m/s 739 mm Hg 22%
10:00 +32°C° 0 mm 2 m/s 739 mm Hg 19%
11:00 +35°C° 0 mm 2 m/s 739 mm Hg 16%
12:00 +36°C° 0 mm 2 m/s 739 mm Hg 14%
13:00 +36°C° 0 mm 2 m/s 738 mm Hg 13%
14:00 +37°C° 0 mm 2 m/s 737 mm Hg 11%
15:00 +36°C° 0 mm 2 m/s 737 mm Hg 12%
16:00 +35°C° 0 mm 2 m/s 737 mm Hg 13%
17:00 +34°C° 0 mm 2 m/s 737 mm Hg 14%
18:00 +32°C° 0 mm 2 m/s 737 mm Hg 17%
19:00 +31°C° 0 mm 3 m/s 738 mm Hg 19%
20:00 +31°C° 0 mm 3 m/s 738 mm Hg 21%
21:00 +29°C° 0 mm 3 m/s 738 mm Hg 29%
22:00 +28°C° 0 mm 3 m/s 739 mm Hg 38%
23:00 +26°C° 0 mm 3 m/s 739 mm Hg 46%

26 Ottobre, Lunedi

Tempo Temperatura Precipitazioni Vento Pressione Umidità
00:00 +26°C° 0 mm 3 m/s 739 mm Hg 48%
01:00 +25°C° 0 mm 3 m/s 739 mm Hg 51%
02:00 +25°C° 0 mm 3 m/s 739 mm Hg 53%
03:00 +25°C° 0 mm 3 m/s 739 mm Hg 50%
04:00 +24°C° 0 mm 3 m/s 739 mm Hg 48%
05:00 +24°C° 0 mm 3 m/s 739 mm Hg 46%
06:00 +25°C° 0 mm 2 m/s 739 mm Hg 43%
07:00 +25°C° 0 mm 2 m/s 740 mm Hg 39%
08:00 +26°C° 0 mm 1 m/s 740 mm Hg 36%
09:00 +27°C° 0 mm 2 m/s 740 mm Hg 34%
10:00 +28°C° 0 mm 2 m/s 740 mm Hg 31%
11:00 +29°C° 0 mm 3 m/s 741 mm Hg 29%
12:00 +29°C° 0 mm 3 m/s 740 mm Hg 31%
13:00 +29°C° 0 mm 2 m/s 740 mm Hg 33%
14:00 +28°C° 0 mm 2 m/s 740 mm Hg 34%
15:00 +28°C° 0 mm 2 m/s 740 mm Hg 36%
16:00 +27°C° 0 mm 2 m/s 740 mm Hg 37%
17:00 +27°C° 0 mm 3 m/s 740 mm Hg 39%
18:00 +26°C° 0 mm 2 m/s 740 mm Hg 40%
19:00 +25°C° 0 mm 2 m/s 740 mm Hg 42%
20:00 +25°C° 0 mm 2 m/s 740 mm Hg 43%
21:00 +25°C° 0 mm 1 m/s 740 mm Hg 43%
22:00 +24°C° 0 mm 1 m/s 740 mm Hg 44%
23:00 +24°C° 0 mm 1 m/s 740 mm Hg 44%
Mostrare altro

Abbiamo bisogno del tuo consenso

Meteoprog e i nostri fornitori di servizi possono memorizzare e accedere a dati personali come cookie, identificatori di dispositivi o altre tecnologie simili sul tuo dispositivo e possono elaborare tali dati per personalizzare i contenuti e gli annunci, nonché fornire funzionalità dei social media e analizzarne il traffico.

  • Archiviare e/o accedere alle informazioni sul tuo dispositivo

    Cookie, identificatori di dispositivi o altre informazioni possono essere memorizzati o resi accessibili sul tuo dispositivo per le finalità sopra indicate.

  • Annunci e contenuti personalizzati, misurazione di annunci e contenuti, approfondimenti sul pubblico e sviluppo di prodotti

    Gli annunci e i contenuti possono essere personalizzati in base a un profilo. È possibile aggiungere più dati per personalizzare meglio annunci e contenuti. È possibile misurare il rendimento degli annunci e dei contenuti. È possibile ricavare informazioni sul pubblico che ha visto gli annunci e i contenuti. Tali dati possono essere utilizzati per sviluppare o migliorare l'esperienza, i sistemi e il software dell'utente.

Cliccando su “Accetto”, acconsenti all'uso di cookie, identificatori di dispositivo, web beacon o altre tecnologie simili. Puoi modificare le impostazioni nel browser del tuo dispositivo.

Per determinati scopi, è possibile fare affidamento su interessi legali, piuttosto che sul consenso. Puoi approfondire questo argomento consultando la nostra Informativa sulla privacy e sui cookie.